Location: TAAA CAC
(31.8680°N, 109.5150°W)
Time: 16:19:05
(UTC-07:00)

Hubble Space Telescope - Visible Passes

Search period start: 13 March 2026 00:00
Search period end: 23 March 2026 00:00
Orbit: 476 x 478 km, 28.5° (Epoch: 13 March)

Date Brightness Start Highest point End Pass type
(mag) Time Alt. Az. Time Alt. Az. Time Alt. Az.
13 Mar 1.7 20:13:20 10° W 20:16:01 37° SW 20:16:01 37° SW visible
14 Mar 1.1 19:42:39 10° W 19:46:15 46° S 19:47:07 38° SE visible
15 Mar 1.1 19:11:57 10° W 19:15:34 46° S 19:18:13 17° ESE visible
15 Mar 3.6 20:51:59 10° WSW 20:52:17 11° WSW 20:52:17 11° WSW visible
16 Mar 2.6 20:21:16 10° WSW 20:23:23 21° SW 20:23:23 21° SW visible
17 Mar 2.2 19:50:32 10° WSW 19:53:34 23° SSW 19:54:30 21° S visible
18 Mar 2.3 19:19:47 10° WSW 19:22:49 23° SSW 19:25:39 11° SE visible
19 Mar 2.4 18:49:01 10° WSW 18:52:03 23° SSW 18:55:06 10° SE visible
